Location: Unspecified
(0.0000°N, 0.0000°E)
Time: 17:56:13
(UTC+00:00)

STARLINK 1009 - Pass Details

Date: 16 January 2020
Orbit: 348 x 352 km, 53.0° (Epoch: 17 January)

Event Time Altitude Azimuth Distance (km) Brightness Sun altitude
Rises 04:58:21 0° 180° (S) 2,146 6.9 -16.6°
Reaches altitude 10° 05:01:59 10° 133° (SE) 1,300 6.7 -15.7°
Maximum altitude 05:02:22 10° 125° (SE) 1,289 6.8 -15.6°
Drops below altitude 10° 05:02:48 10° 116° (ESE) 1,301 6.9 -15.5°
Sets 05:06:21 0° 70° (ENE) 2,135 7.4 -14.7°
